WetterOnline ( https://www.wetteronline.ch )

Wetter aktuell Quimper

Aktuelles Wetter: Quimper (94m)

6-stündlich | Neueste Meldungen
Ortszeit Temperatur Wetter
So, 25.02. 1:00 7.4° C bedeckt
Sa, 24.02. 19:00 8.0° C bewölkt
Sa, 24.02. 13:00 8.7° C -
Sa, 24.02. 7:00 6.3° C bedeckt
Sa, 24.02. 1:00 4.8° C wolkig
Fr, 23.02. 19:00 5.5° C leichter Regen
Fr, 23.02. 13:00 7.7° C wolkig
Fr, 23.02. 7:00 5.4° C -
Ortszeit Temperatur Wetter
So, 25.02. 6:00 8.9° C Sprühregen
So, 25.02. 5:00 8.2° C Sprühregen
So, 25.02. 4:00 7.8° C Sprühregen
So, 25.02. 3:00 7.6° C Sprühregen
So, 25.02. 2:00 7.2° C bedeckt
So, 25.02. 1:00 7.4° C bedeckt
So, 25.02. 0:00 7.7° C bedeckt
Ortszeit Relative Feuchte Sichtweite
So, 25.02. 1:00 90% 16 km
Sa, 24.02. 19:00 86% 15 km
Sa, 24.02. 13:00 85% 19 km
Sa, 24.02. 7:00 82% 19 km
Sa, 24.02. 1:00 87% 15 km
Fr, 23.02. 19:00 80% 14 km
Fr, 23.02. 13:00 76% 17 km
Fr, 23.02. 7:00 86% 55 km
Ortszeit Relative Feuchte Sichtweite
So, 25.02. 6:00 97% 2.7 km
So, 25.02. 5:00 96% 2.6 km
So, 25.02. 4:00 95% 2.5 km
So, 25.02. 3:00 91% 4.3 km
So, 25.02. 2:00 91% 19 km
So, 25.02. 1:00 90% 16 km
So, 25.02. 0:00 90% 16 km
Ortszeit Niederschlagsmenge Niederschlagsart
So, 25.02. 1:00 0.2 l/m2 in 6 Std. -
Sa, 24.02. 19:00 6 l/m2 in 12 Std. -
Sa, 24.02. 13:00 5 l/m2 in 6 Std. -
Sa, 24.02. 7:00 3 l/m2 in 12 Std. -
Sa, 24.02. 1:00 2 l/m2 in 6 Std. -
Fr, 23.02. 19:00 6 l/m2 in 12 Std. -
Fr, 23.02. 13:00 3 l/m2 in 6 Std. -
Fr, 23.02. 7:00 5 l/m2 in 12 Std. -
Ortszeit Niederschlagsmenge Niederschlagsart
So, 25.02. 6:00 0.6 l/m2 in 1 Std. -
So, 25.02. 5:00 0.4 l/m2 in 1 Std. -
So, 25.02. 4:00 keine Meldung -
So, 25.02. 3:00 0.2 l/m2 in 1 Std. -
So, 25.02. 2:00 0.0 l/m2 in 1 Std. -
So, 25.02. 1:00 keine Meldung -
So, 25.02. 0:00 0.2 l/m2 in 1 Std. -
Ortszeit Stärke Spitze Richtung
km/h Bft. km/h Grad Sektor
So, 25.02. 1:00 9 2 17 210° SW
Sa, 24.02. 19:00 7 2 19 240° SW
Sa, 24.02. 13:00 19 3 54 280° W
Sa, 24.02. 7:00 15 3 35 270° W
Sa, 24.02. 1:00 9 2 31 300° NW
Fr, 23.02. 19:00 28 4 52 280° W
Fr, 23.02. 13:00 19 3 46 250° W
Fr, 23.02. 7:00 17 3 50 270° W
Ortszeit Stärke Spitze Richtung
km/h Bft. km/h Grad Sektor
So, 25.02. 6:00 24 4 43 150° SO
So, 25.02. 5:00 22 4 41 140° SO
So, 25.02. 4:00 22 4 35 160° S
So, 25.02. 3:00 13 3 28 170° S
So, 25.02. 2:00 9 2 13 160° S
So, 25.02. 1:00 9 2 17 210° SW
So, 25.02. 0:00 9 2 26 210° SW
Ortszeit Untergrenze Bedeckung Gattung
total tief tief mittel hoch
So, 25.02. 1:00 - 8/8 - - - -
Sa, 24.02. 19:00 - 7/8 - - - -
Sa, 24.02. 13:00 - - - - - -
Sa, 24.02. 7:00 - 8/8 - - - -
Sa, 24.02. 1:00 - 6/8 - - - -
Fr, 23.02. 19:00 - 8/8 - - - -
Fr, 23.02. 13:00 - 6/8 - - - -
Fr, 23.02. 7:00 - - - - - -
Ortszeit Bedeckungsgrad in Achtel und Wolkenuntergrenze
So, 25.02. 6:00 8
So, 25.02. 5:00 8
So, 25.02. 4:00 8
So, 25.02. 3:00 8
So, 25.02. 2:00 8
So, 25.02. 1:00 8
So, 25.02. 0:00 8
Ortszeit Luftdruck NN (hPa) Tendenz (hPa in 3 Std.)
So, 25.02. 1:00 1000 - 2,1
Sa, 24.02. 19:00 1002 + 0,5
Sa, 24.02. 13:00 1001 + 1,4
Sa, 24.02. 7:00 999 + 0,7
Sa, 24.02. 1:00 997 + 1,8
Fr, 23.02. 19:00 994 + 0,1
Fr, 23.02. 13:00 994 - 1,0
Fr, 23.02. 7:00 995 - 0,9
Ortszeit Luftdruck NN (hPa) Tendenz (hPa in 3 Std.)
So, 25.02. 6:00 993 - 4,6
So, 25.02. 5:00 995 - 4,2
So, 25.02. 4:00 996 - 3,7
So, 25.02. 3:00 998 - 3,2
So, 25.02. 2:00 999 - 2,4
So, 25.02. 1:00 1000 - 2,1
So, 25.02. 0:00 1001 - 1,4
Ortszeit Schneehöhe (cm)
So, 25.02. 1:00 0
Sa, 24.02. 19:00 0
Sa, 24.02. 13:00 0
Sa, 24.02. 7:00 0
Sa, 24.02. 1:00 0
Fr, 23.02. 19:00 0
Fr, 23.02. 13:00 0
Fr, 23.02. 7:00 0
Ortszeit Schneehöhe (cm)
So, 25.02. 6:00 -
So, 25.02. 5:00 -
So, 25.02. 4:00 0
So, 25.02. 3:00 -
So, 25.02. 2:00 -
So, 25.02. 1:00 0
So, 25.02. 0:00 -
Link zu dieser Seite / Seite empfehlen

Das Wetter in ...